When you browse on this site, cookies collect data to enhance your experience and personalize the content and advertising you see.
Visit our Privacy Policy to learn more. By continuing to use the site, you agree to this use of cookies and data.
  • In United Kingdom
  • List of Countries
  • For 7 days
  • Water Temperature
  • Satellite Maps
  • Weather Map
  • Weather Widgets
  • user-avatar
    Login

    Hourly Weather Szombathely

    Today, 16 June, Sunday

    Time Temperature Precipitation Wind Pressure Humidity
    00:00 +21°C° 0.3 mm 3 mps 741 mmHg 86%
    01:00 +20°C° 0.3 mm 4 mps 741 mmHg 88%
    02:00 +20°C° 0.1 mm 4 mps 741 mmHg 89%
    03:00 +19°C° 0.1 mm 4 mps 741 mmHg 91%
    04:00 +18°C° 0.1 mm 3 mps 741 mmHg 92%
    05:00 +19°C° 0.4 mm 3 mps 741 mmHg 89%
    06:00 +20°C° 0.4 mm 3 mps 742 mmHg 87%
    07:00 +21°C° 0.4 mm 4 mps 742 mmHg 84%
    08:00 +23°C° 0 mm 4 mps 742 mmHg 78%
    09:00 +25°C° 0 mm 5 mps 742 mmHg 72%
    10:00 +27°C° 0 mm 5 mps 742 mmHg 66%
    11:00 +27°C° 0 mm 6 mps 743 mmHg 64%
    12:00 +28°C° 0 mm 6 mps 743 mmHg 62%
    13:00 +29°C° 0 mm 7 mps 743 mmHg 60%
    14:00 +29°C° 0 mm 7 mps 743 mmHg 62%
    15:00 +28°C° 0 mm 7 mps 742 mmHg 63%
    16:00 +28°C° 0 mm 7 mps 742 mmHg 64%
    17:00 +27°C° 0 mm 7 mps 742 mmHg 67%
    18:00 +24°C° 0 mm 6 mps 743 mmHg 70%
    19:00 +23°C° 0 mm 6 mps 743 mmHg 74%
    20:00 +22°C° 0 mm 6 mps 743 mmHg 73%
    21:00 +21°C° 0 mm 6 mps 744 mmHg 72%
    22:00 +21°C° 0 mm 6 mps 744 mmHg 71%
    23:00 +20°C° 0 mm 6 mps 744 mmHg 69%

    Tomorrow, 17 June, Monday

    Time Temperature Precipitation Wind Pressure Humidity
    00:00 +20°C° 0 mm 6 mps 744 mmHg 68%
    01:00 +20°C° 0 mm 6 mps 745 mmHg 66%
    02:00 +19°C° 0 mm 6 mps 744 mmHg 65%
    03:00 +19°C° 0 mm 6 mps 744 mmHg 65%
    04:00 +19°C° 0 mm 6 mps 744 mmHg 65%
    05:00 +18°C° 0 mm 7 mps 744 mmHg 65%
    06:00 +20°C° 0 mm 7 mps 745 mmHg 64%
    07:00 +20°C° 0 mm 7 mps 745 mmHg 64%
    08:00 +21°C° 0 mm 8 mps 745 mmHg 63%
    09:00 +22°C° 0 mm 8 mps 745 mmHg 61%
    10:00 +23°C° 0 mm 8 mps 745 mmHg 59%
    11:00 +23°C° 0 mm 7 mps 745 mmHg 62%
    12:00 +22°C° 0 mm 6 mps 744 mmHg 65%
    13:00 +22°C° 0 mm 5 mps 744 mmHg 68%
    14:00 +22°C° 0 mm 5 mps 744 mmHg 68%
    15:00 +23°C° 0 mm 4 mps 744 mmHg 67%
    16:00 +23°C° 0 mm 4 mps 743 mmHg 67%
    17:00 +22°C° 0 mm 4 mps 743 mmHg 69%
    18:00 +22°C° 0 mm 3 mps 743 mmHg 71%
    19:00 +21°C° 0 mm 3 mps 743 mmHg 74%
    20:00 +21°C° 0 mm 3 mps 743 mmHg 72%
    21:00 +20°C° 0 mm 3 mps 743 mmHg 70%
    22:00 +19°C° 0 mm 3 mps 744 mmHg 68%
    23:00 +19°C° 0 mm 2 mps 743 mmHg 69%

    Day after tomorrow, 18 June, Tuesday

    Time Temperature Precipitation Wind Pressure Humidity
    00:00 +19°C° 0 mm 2 mps 743 mmHg 70%
    01:00 +18°C° 0 mm 2 mps 743 mmHg 71%
    02:00 +18°C° 0.2 mm 2 mps 743 mmHg 75%
    03:00 +18°C° 0.2 mm 2 mps 743 mmHg 78%
    04:00 +17°C° 0.2 mm 2 mps 743 mmHg 81%
    05:00 +18°C° 0 mm 2 mps 743 mmHg 80%
    06:00 +19°C° 0 mm 2 mps 743 mmHg 79%
    07:00 +20°C° 0 mm 2 mps 743 mmHg 78%
    08:00 +23°C° 0 mm 2 mps 743 mmHg 74%
    09:00 +24°C° 0 mm 2 mps 743 mmHg 71%
    10:00 +25°C° 0 mm 2 mps 743 mmHg 67%
    11:00 +26°C° 0 mm 2 mps 743 mmHg 66%
    12:00 +26°C° 0 mm 3 mps 743 mmHg 66%
    13:00 +27°C° 0 mm 3 mps 742 mmHg 65%
    14:00 +27°C° 0.1 mm 2 mps 742 mmHg 65%
    15:00 +27°C° 0.1 mm 2 mps 742 mmHg 66%
    16:00 +27°C° 0.1 mm 1 mps 741 mmHg 67%
    17:00 +26°C° 0 mm 1 mps 741 mmHg 71%
    18:00 +26°C° 0 mm 1 mps 741 mmHg 75%
    19:00 +23°C° 0 mm 0 mps 741 mmHg 80%
    20:00 +22°C° 0.8 mm 0 mps 741 mmHg 83%
    21:00 +20°C° 0.8 mm 0 mps 741 mmHg 87%
    22:00 +19°C° 0.8 mm 0 mps 741 mmHg 91%
    23:00 +19°C° 0.1 mm 0 mps 741 mmHg 92%

    19 June, Wednesday

    Time Temperature Precipitation Wind Pressure Humidity
    00:00 +19°C° 0.1 mm 0 mps 741 mmHg 92%
    01:00 +20°C° 0.1 mm 1 mps 741 mmHg 93%
    02:00 +20°C° 0.3 mm 1 mps 741 mmHg 93%
    03:00 +18°C° 0.3 mm 0 mps 741 mmHg 93%
    04:00 +17°C° 0.3 mm 0 mps 741 mmHg 94%
    05:00 +19°C° 0.1 mm 0 mps 741 mmHg 91%
    06:00 +20°C° 0.1 mm 0 mps 741 mmHg 88%
    07:00 +21°C° 0.1 mm 0 mps 741 mmHg 86%
    08:00 +23°C° 0.8 mm 0 mps 741 mmHg 80%
    09:00 +24°C° 0.8 mm 0 mps 741 mmHg 74%
    10:00 +26°C° 0.8 mm 0 mps 741 mmHg 68%
    11:00 +29°C° 0.1 mm 1 mps 741 mmHg 63%
    12:00 +29°C° 0.1 mm 1 mps 741 mmHg 57%
    13:00 +30°C° 0.1 mm 1 mps 740 mmHg 52%
    14:00 +30°C° 0.1 mm 1 mps 740 mmHg 52%
    15:00 +30°C° 0.1 mm 1 mps 740 mmHg 53%
    16:00 +30°C° 0.1 mm 1 mps 740 mmHg 53%
    17:00 +28°C° 1.3 mm 1 mps 740 mmHg 62%
    18:00 +27°C° 1.3 mm 2 mps 740 mmHg 71%
    19:00 +25°C° 1.3 mm 2 mps 740 mmHg 79%
    20:00 +23°C° 1.7 mm 2 mps 740 mmHg 83%
    21:00 +21°C° 1.7 mm 3 mps 740 mmHg 87%
    22:00 +19°C° 1.7 mm 3 mps 740 mmHg 90%
    23:00 +19°C° 0.4 mm 2 mps 740 mmHg 89%

    20 June, Thursday

    Time Temperature Precipitation Wind Pressure Humidity
    00:00 +20°C° 0.4 mm 1 mps 740 mmHg 88%
    01:00 +20°C° 0.4 mm 1 mps 740 mmHg 87%
    02:00 +19°C° 0.2 mm 1 mps 740 mmHg 86%
    03:00 +19°C° 0.2 mm 1 mps 740 mmHg 86%
    04:00 +19°C° 0.2 mm 1 mps 740 mmHg 85%
    05:00 +20°C° 0 mm 1 mps 740 mmHg 82%
    06:00 +22°C° 0 mm 1 mps 741 mmHg 78%
    07:00 +23°C° 0 mm 1 mps 741 mmHg 75%
    08:00 +25°C° 0 mm 1 mps 741 mmHg 68%
    09:00 +27°C° 0 mm 1 mps 741 mmHg 60%
    10:00 +29°C° 0 mm 1 mps 741 mmHg 53%
    11:00 +29°C° 0 mm 1 mps 741 mmHg 51%
    12:00 +30°C° 0 mm 1 mps 741 mmHg 48%
    13:00 +31°C° 0 mm 1 mps 741 mmHg 46%
    14:00 +31°C° 0 mm 1 mps 741 mmHg 46%
    15:00 +31°C° 0 mm 1 mps 740 mmHg 46%
    16:00 +31°C° 0 mm 1 mps 740 mmHg 47%
    17:00 +30°C° 0 mm 1 mps 740 mmHg 54%
    18:00 +28°C° 0 mm 1 mps 740 mmHg 61%
    19:00 +27°C° 0 mm 1 mps 740 mmHg 69%
    20:00 +25°C° 0 mm 1 mps 741 mmHg 72%
    21:00 +24°C° 0 mm 1 mps 741 mmHg 75%
    22:00 +23°C° 0 mm 1 mps 741 mmHg 78%
    23:00 +22°C° 0 mm 1 mps 741 mmHg 80%

    21 June, Friday

    Time Temperature Precipitation Wind Pressure Humidity
    00:00 +22°C° 0 mm 1 mps 741 mmHg 81%
    01:00 +21°C° 0 mm 1 mps 741 mmHg 83%
    02:00 +21°C° 0 mm 1 mps 741 mmHg 84%
    03:00 +21°C° 0 mm 1 mps 741 mmHg 85%
    04:00 +21°C° 0 mm 1 mps 741 mmHg 86%
    05:00 +22°C° 0 mm 1 mps 742 mmHg 82%
    06:00 +23°C° 0 mm 1 mps 742 mmHg 78%
    07:00 +25°C° 0 mm 1 mps 742 mmHg 73%
    08:00 +26°C° 0.1 mm 1 mps 742 mmHg 69%
    09:00 +28°C° 0.1 mm 2 mps 742 mmHg 64%
    10:00 +29°C° 0.1 mm 2 mps 742 mmHg 59%
    11:00 +30°C° 0.1 mm 3 mps 742 mmHg 56%
    12:00 +31°C° 0.1 mm 3 mps 741 mmHg 53%
    13:00 +33°C° 0.1 mm 4 mps 741 mmHg 50%
    14:00 +32°C° 0 mm 4 mps 741 mmHg 50%
    15:00 +32°C° 0 mm 4 mps 740 mmHg 50%
    16:00 +32°C° 0 mm 4 mps 740 mmHg 51%
    17:00 +30°C° 0 mm 4 mps 740 mmHg 57%
    18:00 +28°C° 0 mm 3 mps 739 mmHg 64%
    19:00 +27°C° 0 mm 3 mps 739 mmHg 70%
    20:00 +26°C° 0 mm 3 mps 740 mmHg 73%
    21:00 +25°C° 0 mm 3 mps 740 mmHg 76%
    22:00 +24°C° 0 mm 3 mps 740 mmHg 79%
    23:00 +22°C° 0 mm 3 mps 740 mmHg 83%
    Show more